Year,Month,Day,Hour,Minute,Value (Times are PST for temperature in C)
2009,07,29,00,00,19.80
2009,07,29,00,01,19.80
2009,07,29,00,02,19.70
2009,07,29,00,03,19.70
2009,07,29,00,04,19.70
2009,07,29,00,05,19.60
2009,07,29,00,06,19.60
2009,07,29,00,07,19.60
2009,07,29,00,08,19.60
2009,07,29,00,09,19.50
2009,07,29,00,10,19.50
2009,07,29,00,11,19.50
2009,07,29,00,12,19.40
2009,07,29,00,13,19.40
2009,07,29,00,14,19.40
2009,07,29,00,15,19.40
2009,07,29,00,16,19.40
2009,07,29,00,17,19.40
2009,07,29,00,18,19.40
2009,07,29,00,19,19.30
2009,07,29,00,20,19.30
2009,07,29,00,21,19.30
2009,07,29,00,22,19.30
2009,07,29,00,23,19.30
2009,07,29,00,24,19.30
2009,07,29,00,25,19.30
2009,07,29,00,26,19.30
2009,07,29,00,27,19.20
2009,07,29,00,28,19.20
2009,07,29,00,29,19.20
2009,07,29,00,30,19.20
2009,07,29,00,31,19.20
2009,07,29,00,32,19.20
2009,07,29,00,33,19.20
2009,07,29,00,34,19.20
2009,07,29,00,35,19.20
2009,07,29,00,36,19.20
2009,07,29,00,37,19.20
2009,07,29,00,38,19.20
2009,07,29,00,39,19.20
2009,07,29,00,40,19.20
2009,07,29,00,41,19.20
2009,07,29,00,42,19.20
2009,07,29,00,43,19.10
2009,07,29,00,44,19.10
2009,07,29,00,45,19.10
2009,07,29,00,46,19.10
2009,07,29,00,47,19.10
2009,07,29,00,48,19.00
2009,07,29,00,49,19.00
2009,07,29,00,50,18.90
2009,07,29,00,51,18.90
2009,07,29,00,52,18.90
2009,07,29,00,53,18.90
2009,07,29,00,54,18.80
2009,07,29,00,55,18.80
2009,07,29,00,56,18.80
2009,07,29,00,57,18.80
2009,07,29,00,58,18.80
2009,07,29,00,59,18.80
2009,07,29,01,00,18.80
2009,07,29,01,01,18.80
2009,07,29,01,02,18.80
2009,07,29,01,03,18.80
2009,07,29,01,04,18.80
2009,07,29,01,05,18.80
2009,07,29,01,06,18.80
2009,07,29,01,07,18.80
2009,07,29,01,08,18.80
2009,07,29,01,09,18.90
2009,07,29,01,10,18.90
2009,07,29,01,11,18.90
2009,07,29,01,12,18.90
2009,07,29,01,13,18.90
2009,07,29,01,14,18.90
2009,07,29,01,15,18.90
2009,07,29,01,16,18.90
2009,07,29,01,17,18.90
2009,07,29,01,18,18.90
2009,07,29,01,19,18.90
2009,07,29,01,20,18.90
2009,07,29,01,21,18.90
2009,07,29,01,22,18.90
2009,07,29,01,23,18.90
2009,07,29,01,24,18.90
2009,07,29,01,25,18.90
2009,07,29,01,26,18.90
2009,07,29,01,27,18.90
2009,07,29,01,28,18.90
2009,07,29,01,29,18.90
2009,07,29,01,30,18.90
2009,07,29,01,31,18.90
2009,07,29,01,32,19.00
2009,07,29,01,33,19.00
2009,07,29,01,34,19.00
2009,07,29,01,35,19.10
2009,07,29,01,36,19.10
2009,07,29,01,37,19.20
2009,07,29,01,38,19.20
2009,07,29,01,39,19.30
2009,07,29,01,40,19.30
2009,07,29,01,41,19.30
2009,07,29,01,42,19.30
2009,07,29,01,43,19.40
2009,07,29,01,44,19.40
2009,07,29,01,45,19.40
2009,07,29,01,46,19.50
2009,07,29,01,47,19.50
2009,07,29,01,48,19.50
2009,07,29,01,49,19.50
2009,07,29,01,50,19.60
2009,07,29,01,51,19.60
2009,07,29,01,52,19.60
2009,07,29,01,53,19.60
2009,07,29,01,54,19.60
2009,07,29,01,55,19.50
2009,07,29,01,56,19.50
2009,07,29,01,57,19.40
2009,07,29,01,58,19.40
2009,07,29,01,59,19.30
2009,07,29,02,00,19.30
2009,07,29,02,01,19.30
2009,07,29,02,02,19.30
2009,07,29,02,03,19.20
2009,07,29,02,04,19.10
2009,07,29,02,05,19.10
2009,07,29,02,06,19.00
2009,07,29,02,07,19.00
2009,07,29,02,08,18.90
2009,07,29,02,09,18.90
2009,07,29,02,10,18.90
2009,07,29,02,11,18.80
2009,07,29,02,12,18.80
2009,07,29,02,13,18.80
2009,07,29,02,14,18.80
2009,07,29,02,15,18.70
2009,07,29,02,16,18.70
2009,07,29,02,17,18.70
2009,07,29,02,18,18.60
2009,07,29,02,19,18.60
2009,07,29,02,20,18.60
2009,07,29,02,21,18.60
2009,07,29,02,22,18.60
2009,07,29,02,23,18.50
2009,07,29,02,24,18.50
2009,07,29,02,25,18.50
2009,07,29,02,26,18.50
2009,07,29,02,27,18.50
2009,07,29,02,28,18.50
2009,07,29,02,29,18.50
2009,07,29,02,30,18.40
2009,07,29,02,31,18.40
2009,07,29,02,32,18.40
2009,07,29,02,33,18.40
2009,07,29,02,34,18.40
2009,07,29,02,35,18.40
2009,07,29,02,36,18.40
2009,07,29,02,37,18.40
2009,07,29,02,38,18.40
2009,07,29,02,39,18.40
2009,07,29,02,40,18.40
2009,07,29,02,41,18.40
2009,07,29,02,42,18.40
2009,07,29,02,43,18.40
2009,07,29,02,44,18.40
2009,07,29,02,45,18.40
2009,07,29,02,46,18.40
2009,07,29,02,47,18.40
2009,07,29,02,48,18.50
2009,07,29,02,49,18.50
2009,07,29,02,50,18.50
2009,07,29,02,51,18.50
2009,07,29,02,52,18.50
2009,07,29,02,53,18.50
2009,07,29,02,54,18.50
2009,07,29,02,55,18.50
2009,07,29,02,56,18.50
2009,07,29,02,57,18.50
2009,07,29,02,58,18.50
2009,07,29,02,59,18.50
2009,07,29,03,00,18.50
2009,07,29,03,01,18.50
2009,07,29,03,02,18.50
2009,07,29,03,03,18.50
2009,07,29,03,04,18.50
2009,07,29,03,05,18.50
2009,07,29,03,06,18.50
2009,07,29,03,07,18.50
2009,07,29,03,08,18.60
2009,07,29,03,09,18.60
2009,07,29,03,10,18.60
2009,07,29,03,11,18.60
2009,07,29,03,12,18.60
2009,07,29,03,13,18.50
2009,07,29,03,14,18.50
2009,07,29,03,15,18.50
2009,07,29,03,16,18.50
2009,07,29,03,17,18.50
2009,07,29,03,18,18.40
2009,07,29,03,19,18.40
2009,07,29,03,20,18.40
2009,07,29,03,21,18.40
2009,07,29,03,22,18.40
2009,07,29,03,23,18.30
2009,07,29,03,24,18.30
2009,07,29,03,25,18.20
2009,07,29,03,26,18.20
2009,07,29,03,27,18.20
2009,07,29,03,28,18.10
2009,07,29,03,29,18.00
2009,07,29,03,30,17.90
2009,07,29,03,31,17.90
2009,07,29,03,32,17.80
2009,07,29,03,33,17.70
2009,07,29,03,34,17.60
2009,07,29,03,35,17.60
2009,07,29,03,36,17.50
2009,07,29,03,37,17.40
2009,07,29,03,38,17.40
2009,07,29,03,39,17.30
2009,07,29,03,40,17.30
2009,07,29,03,41,17.20
2009,07,29,03,42,17.20
2009,07,29,03,43,17.20
2009,07,29,03,44,17.10
2009,07,29,03,45,17.10
2009,07,29,03,46,17.00
2009,07,29,03,47,16.90
2009,07,29,03,48,16.90
2009,07,29,03,49,16.80
2009,07,29,03,50,16.80
2009,07,29,03,51,16.80
2009,07,29,03,52,16.80
2009,07,29,03,53,16.70
2009,07,29,03,54,16.70
2009,07,29,03,55,16.70
2009,07,29,03,56,16.70
2009,07,29,03,57,16.70
2009,07,29,03,58,16.60
2009,07,29,03,59,16.60
2009,07,29,04,00,16.60
2009,07,29,04,01,16.60
2009,07,29,04,02,16.60
2009,07,29,04,03,16.60
2009,07,29,04,09,16.60
2009,07,29,04,10,16.60
2009,07,29,04,11,16.60
2009,07,29,04,12,16.60
2009,07,29,04,13,16.60
2009,07,29,04,14,16.60
2009,07,29,04,15,16.60
2009,07,29,04,16,16.60
2009,07,29,04,17,16.60
2009,07,29,04,18,16.60
2009,07,29,04,19,16.60
2009,07,29,04,20,16.60
2009,07,29,04,21,16.60
2009,07,29,04,22,16.60
2009,07,29,04,23,16.70
2009,07,29,04,24,16.70
2009,07,29,04,25,16.70
2009,07,29,04,26,16.70
2009,07,29,04,27,16.70
2009,07,29,04,28,16.80
2009,07,29,04,29,16.80
2009,07,29,04,30,16.80
2009,07,29,04,31,16.80
2009,07,29,04,32,16.90
2009,07,29,04,33,16.90
2009,07,29,04,34,16.90
2009,07,29,04,35,16.90
2009,07,29,04,36,16.90
2009,07,29,04,37,16.90
2009,07,29,04,38,16.90
2009,07,29,04,39,16.90
2009,07,29,04,40,16.90
2009,07,29,04,41,16.90
2009,07,29,04,42,16.90
2009,07,29,04,43,16.90
2009,07,29,04,44,16.90
2009,07,29,04,45,16.90
2009,07,29,04,46,16.90
2009,07,29,04,47,16.90
2009,07,29,04,48,16.90
2009,07,29,04,49,16.90
2009,07,29,04,50,16.90
2009,07,29,04,51,16.90
2009,07,29,04,52,16.80
2009,07,29,04,53,16.80
2009,07,29,04,54,16.80
2009,07,29,04,55,16.80
2009,07,29,04,56,16.80
2009,07,29,04,57,16.80
2009,07,29,04,58,16.80
2009,07,29,04,59,16.80
2009,07,29,05,00,16.80
2009,07,29,05,01,16.80
2009,07,29,05,02,16.80
2009,07,29,05,03,16.80
2009,07,29,05,04,16.80
2009,07,29,05,05,16.80
2009,07,29,05,06,16.80
2009,07,29,05,07,16.90
2009,07,29,05,08,16.90
2009,07,29,05,09,16.90
2009,07,29,05,10,16.90
2009,07,29,05,11,16.90
2009,07,29,05,12,17.00
2009,07,29,05,13,17.00
2009,07,29,05,14,17.00
2009,07,29,05,15,17.10
2009,07,29,05,16,17.10
2009,07,29,05,17,17.10
2009,07,29,05,18,17.10
2009,07,29,05,19,17.00
2009,07,29,05,20,17.00
2009,07,29,05,21,16.90
2009,07,29,05,22,16.90
2009,07,29,05,23,16.90
2009,07,29,05,24,16.90
2009,07,29,05,25,16.80
2009,07,29,05,26,16.80
2009,07,29,05,27,16.80
2009,07,29,05,28,16.70
2009,07,29,05,29,16.70
2009,07,29,05,30,16.70
2009,07,29,05,31,16.70
2009,07,29,05,32,16.60
2009,07,29,05,33,16.60
2009,07,29,05,34,16.60
2009,07,29,05,35,16.60
2009,07,29,05,36,16.60
2009,07,29,05,37,16.60
2009,07,29,05,38,16.60
2009,07,29,05,39,16.60
2009,07,29,05,40,16.60
2009,07,29,05,41,16.60
2009,07,29,05,42,16.60
2009,07,29,05,43,16.60
2009,07,29,05,44,16.60
2009,07,29,05,45,16.60
2009,07,29,05,46,16.60
2009,07,29,05,47,16.60
2009,07,29,05,48,16.60
2009,07,29,05,49,16.50
2009,07,29,05,50,16.50
2009,07,29,05,51,16.60
2009,07,29,05,52,16.60
2009,07,29,05,53,16.60
2009,07,29,05,54,16.60
2009,07,29,05,55,16.60
2009,07,29,05,56,16.60
2009,07,29,05,57,16.60
2009,07,29,05,58,16.60
2009,07,29,05,59,16.60
2009,07,29,06,00,16.60
2009,07,29,06,01,16.70
2009,07,29,06,02,16.70
2009,07,29,06,03,16.70
2009,07,29,06,04,16.70
2009,07,29,06,05,16.70
2009,07,29,06,06,16.70
2009,07,29,06,07,16.70
2009,07,29,06,08,16.80
2009,07,29,06,09,16.80
2009,07,29,06,10,16.80
2009,07,29,06,11,16.80
2009,07,29,06,12,16.80
2009,07,29,06,13,16.80
2009,07,29,06,14,16.80
2009,07,29,06,15,16.80
2009,07,29,06,16,16.80
2009,07,29,06,17,16.90
2009,07,29,06,18,16.90
2009,07,29,06,19,16.90
2009,07,29,06,20,16.90
2009,07,29,06,21,17.00
2009,07,29,06,22,17.00
2009,07,29,06,23,17.10
2009,07,29,06,24,17.10
2009,07,29,06,25,17.20
2009,07,29,06,26,17.20
2009,07,29,06,27,17.20
2009,07,29,06,28,17.30
2009,07,29,06,29,17.30
2009,07,29,06,30,17.40
2009,07,29,06,31,17.40
2009,07,29,06,32,17.40
2009,07,29,06,33,17.50
2009,07,29,06,34,17.60
2009,07,29,06,35,17.60
2009,07,29,06,36,17.70
2009,07,29,06,37,17.80
2009,07,29,06,38,17.80
2009,07,29,06,39,17.90
2009,07,29,06,40,18.00
2009,07,29,06,41,18.00
2009,07,29,06,42,18.00
2009,07,29,06,43,17.90
2009,07,29,06,44,17.90
2009,07,29,06,45,17.80
2009,07,29,06,46,17.70
2009,07,29,06,47,17.60
2009,07,29,06,48,17.50
2009,07,29,06,49,17.40
2009,07,29,06,50,17.30
2009,07,29,06,51,17.20
2009,07,29,06,52,17.00
2009,07,29,06,53,17.00
2009,07,29,06,54,16.90
2009,07,29,06,55,16.90
2009,07,29,06,56,16.90
2009,07,29,06,57,16.80
2009,07,29,06,58,16.80
2009,07,29,06,59,16.90
2009,07,29,07,00,16.90
2009,07,29,07,01,16.90
2009,07,29,07,02,17.00
2009,07,29,07,03,17.00
2009,07,29,07,04,17.00
2009,07,29,07,05,17.10
2009,07,29,07,06,17.10
2009,07,29,07,07,17.20
2009,07,29,07,08,17.20
2009,07,29,07,09,17.30
2009,07,29,07,10,17.30
2009,07,29,07,11,17.40
2009,07,29,07,12,17.40
2009,07,29,07,13,17.50
2009,07,29,07,14,17.50
2009,07,29,07,15,17.60
2009,07,29,07,16,17.70
2009,07,29,07,17,17.70
2009,07,29,07,18,17.80
2009,07,29,07,19,17.90
2009,07,29,07,20,18.00
2009,07,29,07,21,18.00
2009,07,29,07,22,18.20
2009,07,29,07,23,18.20
2009,07,29,07,24,18.30
2009,07,29,07,25,18.30
2009,07,29,07,26,18.40
2009,07,29,07,27,18.50
2009,07,29,07,28,18.60
2009,07,29,07,29,18.70
2009,07,29,07,30,18.70
2009,07,29,07,31,18.80
2009,07,29,07,32,18.90
2009,07,29,07,33,19.00
2009,07,29,07,34,19.10
2009,07,29,07,35,19.20
2009,07,29,07,36,19.20
2009,07,29,07,37,19.30
2009,07,29,07,38,19.30
2009,07,29,07,39,19.40
2009,07,29,07,40,19.40
2009,07,29,07,41,19.50
2009,07,29,07,42,19.60
2009,07,29,07,43,19.60
2009,07,29,07,44,19.70
2009,07,29,07,45,19.80
2009,07,29,07,46,19.90
2009,07,29,07,47,19.90
2009,07,29,07,48,20.00
2009,07,29,07,49,20.10
2009,07,29,07,50,20.20
2009,07,29,07,51,20.20
2009,07,29,07,52,20.20
2009,07,29,07,53,20.20
2009,07,29,07,54,20.20
2009,07,29,07,55,20.20
2009,07,29,07,56,20.20
2009,07,29,07,57,20.20
2009,07,29,07,58,20.00
2009,07,29,07,59,19.90
2009,07,29,08,00,19.70
2009,07,29,08,01,19.60
2009,07,29,08,02,19.60
2009,07,29,08,03,19.60
2009,07,29,08,04,19.50
2009,07,29,08,05,19.50
2009,07,29,08,06,19.40
2009,07,29,08,07,19.30
2009,07,29,08,08,19.20
2009,07,29,08,09,19.20
2009,07,29,08,10,19.10
2009,07,29,08,11,19.10
2009,07,29,08,12,19.10
2009,07,29,08,13,19.20
2009,07,29,08,14,19.20
2009,07,29,08,15,19.20
2009,07,29,08,16,19.30
2009,07,29,08,17,19.40
2009,07,29,08,18,19.40
2009,07,29,08,19,19.50
2009,07,29,08,20,19.60
2009,07,29,08,21,19.70
2009,07,29,08,22,19.80
2009,07,29,08,23,19.90
2009,07,29,08,24,20.00
2009,07,29,08,25,20.10
2009,07,29,08,26,20.20
2009,07,29,08,27,20.20
2009,07,29,08,28,20.30
2009,07,29,08,29,20.30
2009,07,29,08,30,20.20
2009,07,29,08,31,20.20
2009,07,29,08,32,20.20
2009,07,29,08,33,20.20
2009,07,29,08,34,20.20
2009,07,29,08,35,20.20
2009,07,29,08,36,20.20
2009,07,29,08,37,20.20
2009,07,29,08,38,20.20
2009,07,29,08,39,20.30
2009,07,29,08,40,20.30
2009,07,29,08,41,20.40
2009,07,29,08,42,20.50
2009,07,29,08,43,20.50
2009,07,29,08,44,20.60
2009,07,29,08,45,20.70
2009,07,29,08,46,20.70
2009,07,29,08,47,20.80
2009,07,29,08,48,20.90
2009,07,29,08,49,21.00
2009,07,29,08,50,21.10
2009,07,29,08,51,21.20
2009,07,29,08,52,21.30
2009,07,29,08,53,21.40
2009,07,29,08,54,21.50
2009,07,29,08,55,21.50
2009,07,29,08,56,21.60
2009,07,29,08,57,21.70
2009,07,29,08,58,21.80
2009,07,29,08,59,21.80
2009,07,29,09,00,21.90
2009,07,29,09,01,22.00
2009,07,29,09,02,22.10
2009,07,29,09,03,22.20
2009,07,29,09,04,22.20
2009,07,29,09,05,22.30
2009,07,29,09,06,22.40
2009,07,29,09,07,22.50
2009,07,29,09,08,22.60
2009,07,29,09,09,22.80
2009,07,29,09,10,22.80
2009,07,29,09,11,22.90
2009,07,29,09,12,23.00
2009,07,29,09,13,23.10
2009,07,29,09,14,23.20
2009,07,29,09,15,23.30
2009,07,29,09,16,23.30
2009,07,29,09,17,23.40
2009,07,29,09,18,23.40
2009,07,29,09,19,23.50
2009,07,29,09,20,23.60
2009,07,29,09,21,23.70
2009,07,29,09,22,23.80
2009,07,29,09,23,23.90
2009,07,29,09,24,24.00
2009,07,29,09,25,24.00
2009,07,29,09,26,24.10
2009,07,29,09,27,24.10
2009,07,29,09,28,24.10
2009,07,29,09,29,24.10
2009,07,29,09,30,24.10
2009,07,29,09,31,24.00
2009,07,29,09,32,24.00
2009,07,29,09,33,23.90
2009,07,29,09,34,23.90
2009,07,29,09,35,24.00
2009,07,29,09,36,24.10
2009,07,29,09,37,24.10
2009,07,29,09,38,24.10
2009,07,29,09,39,24.20
2009,07,29,09,40,24.20
2009,07,29,09,41,24.20
2009,07,29,09,42,24.10
2009,07,29,09,43,24.00
2009,07,29,09,44,23.90
2009,07,29,09,45,23.80
2009,07,29,09,46,23.70
2009,07,29,09,47,23.60
2009,07,29,09,48,23.50
2009,07,29,09,49,23.40
2009,07,29,09,50,23.40
2009,07,29,09,51,23.40
2009,07,29,09,52,23.30
2009,07,29,09,53,23.30
2009,07,29,09,54,23.40
2009,07,29,09,55,23.40
2009,07,29,09,56,23.50
2009,07,29,09,57,23.60
2009,07,29,09,58,23.70
2009,07,29,09,59,23.70
2009,07,29,10,00,23.80
2009,07,29,10,01,23.90
2009,07,29,10,02,23.90
2009,07,29,10,03,24.00
2009,07,29,10,04,24.10
2009,07,29,10,05,24.10
2009,07,29,10,06,24.20
2009,07,29,10,07,24.20
2009,07,29,10,08,24.20
2009,07,29,10,09,24.20
2009,07,29,10,10,24.20
2009,07,29,10,11,24.30
2009,07,29,10,12,24.40
2009,07,29,10,13,24.40
2009,07,29,10,14,24.50
2009,07,29,10,15,24.60
2009,07,29,10,16,24.80
2009,07,29,10,17,25.00
2009,07,29,10,18,25.20
2009,07,29,10,19,25.40
2009,07,29,10,20,25.50
2009,07,29,10,21,25.70
2009,07,29,10,22,25.80
2009,07,29,10,23,25.90
2009,07,29,10,24,26.00
2009,07,29,10,25,26.10
2009,07,29,10,26,26.10
2009,07,29,10,27,26.20
2009,07,29,10,28,26.10
2009,07,29,10,29,26.00
2009,07,29,10,30,26.00
2009,07,29,10,31,26.00
2009,07,29,10,32,26.00
2009,07,29,10,33,26.00
2009,07,29,10,34,26.10
2009,07,29,10,35,26.10
2009,07,29,10,36,26.10
2009,07,29,10,37,26.20
2009,07,29,10,38,26.30
2009,07,29,10,39,26.30
2009,07,29,10,40,26.30
2009,07,29,10,41,26.40
2009,07,29,10,42,26.30
2009,07,29,10,43,26.30
2009,07,29,10,44,26.30
2009,07,29,10,45,26.20
2009,07,29,10,46,26.20
2009,07,29,10,47,26.30
2009,07,29,10,48,26.30
2009,07,29,10,49,26.30
2009,07,29,10,50,26.40
2009,07,29,10,51,26.50
2009,07,29,10,52,26.50
2009,07,29,10,53,26.60
2009,07,29,10,54,26.60
2009,07,29,10,55,26.70
2009,07,29,10,56,26.80
2009,07,29,10,57,26.90
2009,07,29,10,58,27.00
2009,07,29,10,59,27.10
2009,07,29,11,00,27.30
2009,07,29,11,01,27.40
2009,07,29,11,02,27.40
2009,07,29,11,03,27.50
2009,07,29,11,04,27.60
2009,07,29,11,05,27.60
2009,07,29,11,06,27.70
2009,07,29,11,07,27.80
2009,07,29,11,08,27.90
2009,07,29,11,09,28.00
2009,07,29,11,10,28.10
2009,07,29,11,11,28.20
2009,07,29,11,12,28.30
2009,07,29,11,13,28.40
2009,07,29,11,14,28.50
2009,07,29,11,15,28.50
2009,07,29,11,16,28.60
2009,07,29,11,17,28.70
2009,07,29,11,18,28.70
2009,07,29,11,19,28.70
2009,07,29,11,20,28.80
2009,07,29,11,21,28.80
2009,07,29,11,22,28.80
2009,07,29,11,23,28.80
2009,07,29,11,24,28.90
2009,07,29,11,25,29.00
2009,07,29,11,26,29.10
2009,07,29,11,27,29.10
2009,07,29,11,28,29.20
2009,07,29,11,29,29.30
2009,07,29,11,30,29.30
2009,07,29,11,31,29.30
2009,07,29,11,32,29.40
2009,07,29,11,33,29.40
2009,07,29,11,34,29.40
2009,07,29,11,35,29.40
2009,07,29,11,36,29.40
2009,07,29,11,37,29.40
2009,07,29,11,38,29.40
2009,07,29,11,39,29.40
2009,07,29,11,40,29.40
2009,07,29,11,41,29.50
2009,07,29,11,42,29.50
2009,07,29,11,43,29.60
2009,07,29,11,44,29.60
2009,07,29,11,45,29.60
2009,07,29,11,46,29.60
2009,07,29,11,47,29.60
2009,07,29,11,48,29.60
2009,07,29,11,49,29.50
2009,07,29,11,50,29.50
2009,07,29,11,51,29.50
2009,07,29,11,52,29.50
2009,07,29,11,53,29.50
2009,07,29,11,54,29.40
2009,07,29,11,55,29.40
2009,07,29,11,56,29.20
2009,07,29,11,57,29.20
2009,07,29,11,58,29.10
2009,07,29,11,59,29.10
2009,07,29,12,00,29.10
2009,07,29,12,01,29.10
2009,07,29,12,02,29.10
2009,07,29,12,03,29.20
2009,07,29,12,04,29.20
2009,07,29,12,05,29.30
2009,07,29,12,06,29.40
2009,07,29,12,07,29.50
2009,07,29,12,08,29.50
2009,07,29,12,09,29.60
2009,07,29,12,10,29.70
2009,07,29,12,11,29.70
2009,07,29,12,12,29.80
2009,07,29,12,13,29.80
2009,07,29,12,14,29.80
2009,07,29,12,15,29.80
2009,07,29,12,16,29.80
2009,07,29,12,17,29.80
2009,07,29,12,18,29.90
2009,07,29,12,19,30.00
2009,07,29,12,20,30.10
2009,07,29,12,21,30.20
2009,07,29,12,22,30.30
2009,07,29,12,23,30.30
2009,07,29,12,24,30.40
2009,07,29,12,25,30.40
2009,07,29,12,26,30.40
2009,07,29,12,27,30.30
2009,07,29,12,28,30.30
2009,07,29,12,29,30.30
2009,07,29,12,30,30.30
2009,07,29,12,31,30.30
2009,07,29,12,32,30.30
2009,07,29,12,33,30.40
2009,07,29,12,34,30.40
2009,07,29,12,35,30.40
2009,07,29,12,36,30.50
2009,07,29,12,37,30.50
2009,07,29,12,38,30.60
2009,07,29,12,39,30.60
2009,07,29,12,40,30.70
2009,07,29,12,41,30.70
2009,07,29,12,42,30.70
2009,07,29,12,43,30.70
2009,07,29,12,44,30.60
2009,07,29,12,45,30.60
2009,07,29,12,46,30.60
2009,07,29,12,47,30.70
2009,07,29,12,48,30.70
2009,07,29,12,49,30.70
2009,07,29,12,50,30.70
2009,07,29,12,51,30.70
2009,07,29,12,52,30.60
2009,07,29,12,53,30.60
2009,07,29,12,54,30.60
2009,07,29,12,55,30.70
2009,07,29,12,56,30.80
2009,07,29,12,57,30.80
2009,07,29,12,58,30.90
2009,07,29,12,59,31.00
2009,07,29,13,00,31.10
2009,07,29,13,01,31.10
2009,07,29,13,02,31.20
2009,07,29,13,03,31.10
2009,07,29,13,04,31.10
2009,07,29,13,05,31.10
2009,07,29,13,06,31.10
2009,07,29,13,07,31.10
2009,07,29,13,08,31.10
2009,07,29,13,09,31.20
2009,07,29,13,10,31.20
2009,07,29,13,11,31.30
2009,07,29,13,12,31.30
2009,07,29,13,13,31.30
2009,07,29,13,14,31.40
2009,07,29,13,15,31.40
2009,07,29,13,16,31.40
2009,07,29,13,17,31.40
2009,07,29,13,18,31.40
2009,07,29,13,19,31.50
2009,07,29,13,20,31.50
2009,07,29,13,21,31.60
2009,07,29,13,22,31.60
2009,07,29,13,23,31.70
2009,07,29,13,24,31.80
2009,07,29,13,25,31.80
2009,07,29,13,26,31.90
2009,07,29,13,27,31.90
2009,07,29,13,28,32.00
2009,07,29,13,29,32.10
2009,07,29,13,30,32.20
2009,07,29,13,31,32.30
2009,07,29,13,32,32.40
2009,07,29,13,33,32.40
2009,07,29,13,34,32.40
2009,07,29,13,35,32.40
2009,07,29,13,36,32.40
2009,07,29,13,37,32.50
2009,07,29,13,38,32.50
2009,07,29,13,39,32.50
2009,07,29,13,40,32.40
2009,07,29,13,41,32.30
2009,07,29,13,42,32.30
2009,07,29,13,43,32.30
2009,07,29,13,44,32.30
2009,07,29,13,45,32.40
2009,07,29,13,46,32.40
2009,07,29,13,47,32.40
2009,07,29,13,48,32.50
2009,07,29,13,49,32.40
2009,07,29,13,50,32.40
2009,07,29,13,51,32.40
2009,07,29,13,52,32.40
2009,07,29,13,53,32.40
2009,07,29,13,54,32.40
2009,07,29,13,55,32.50
2009,07,29,13,56,32.60
2009,07,29,13,57,32.50
2009,07,29,13,58,32.50
2009,07,29,13,59,32.60
2009,07,29,14,00,32.60
2009,07,29,14,01,32.70
2009,07,29,14,02,32.80
2009,07,29,14,03,32.90
2009,07,29,14,04,33.00
2009,07,29,14,05,33.10
2009,07,29,14,06,33.10
2009,07,29,14,07,33.10
2009,07,29,14,08,33.10
2009,07,29,14,09,33.10
2009,07,29,14,10,33.10
2009,07,29,14,11,33.10
2009,07,29,14,12,33.10
2009,07,29,14,13,33.10
2009,07,29,14,14,33.00
2009,07,29,14,15,33.00
2009,07,29,14,16,33.00
2009,07,29,14,17,33.00
2009,07,29,14,18,33.00
2009,07,29,14,19,33.10
2009,07,29,14,20,33.20
2009,07,29,14,21,33.20
2009,07,29,14,22,33.20
2009,07,29,14,23,33.10
2009,07,29,14,24,33.10
2009,07,29,14,25,33.00
2009,07,29,14,26,33.00
2009,07,29,14,27,33.00
2009,07,29,14,28,33.10
2009,07,29,14,29,33.20
2009,07,29,14,30,33.20
2009,07,29,14,31,33.20
2009,07,29,14,32,33.20
2009,07,29,14,33,33.20
2009,07,29,14,34,33.20
2009,07,29,14,35,33.30
2009,07,29,14,36,33.30
2009,07,29,14,37,33.30
2009,07,29,14,38,33.30
2009,07,29,14,39,33.30
2009,07,29,14,40,33.30
2009,07,29,14,41,33.30
2009,07,29,14,42,33.30
2009,07,29,14,43,33.20
2009,07,29,14,44,33.20
2009,07,29,14,45,33.30
2009,07,29,14,46,33.20
2009,07,29,14,47,33.20
2009,07,29,14,48,33.20
2009,07,29,14,49,33.20
2009,07,29,14,50,33.20
2009,07,29,14,51,33.20
2009,07,29,14,52,33.30
2009,07,29,14,53,33.30
2009,07,29,14,54,33.30
2009,07,29,14,55,33.40
2009,07,29,14,56,33.50
2009,07,29,14,57,33.60
2009,07,29,14,58,33.70
2009,07,29,14,59,33.90
2009,07,29,15,00,33.90
2009,07,29,15,01,34.00
2009,07,29,15,02,34.00
2009,07,29,15,03,34.00
2009,07,29,15,04,34.00
2009,07,29,15,05,34.10
2009,07,29,15,06,34.10
2009,07,29,15,07,34.20
2009,07,29,15,08,34.20
2009,07,29,15,09,34.10
2009,07,29,15,10,34.10
2009,07,29,15,11,34.10
2009,07,29,15,12,34.10
2009,07,29,15,13,34.10
2009,07,29,15,14,34.20
2009,07,29,15,15,34.10
2009,07,29,15,16,34.00
2009,07,29,15,17,33.90
2009,07,29,15,18,33.90
2009,07,29,15,19,33.90
2009,07,29,15,20,33.90
2009,07,29,15,21,33.90
2009,07,29,15,22,33.90
2009,07,29,15,23,33.90
2009,07,29,15,24,33.90
2009,07,29,15,25,34.00
2009,07,29,15,26,34.10
2009,07,29,15,27,34.10
2009,07,29,15,28,34.20
2009,07,29,15,29,34.30
2009,07,29,15,30,34.40
2009,07,29,15,31,34.50
2009,07,29,15,32,34.60
2009,07,29,15,33,34.60
2009,07,29,15,34,34.60
2009,07,29,15,35,34.60
2009,07,29,15,36,34.60
2009,07,29,15,37,34.60
2009,07,29,15,38,34.60
2009,07,29,15,39,34.70
2009,07,29,15,40,34.70
2009,07,29,15,41,34.70
2009,07,29,15,42,34.80
2009,07,29,15,43,34.90
2009,07,29,15,44,35.00
2009,07,29,15,45,35.00
2009,07,29,15,46,35.00
2009,07,29,15,47,35.00
2009,07,29,15,48,35.00
2009,07,29,15,49,34.90
2009,07,29,15,50,35.00
2009,07,29,15,51,35.00
2009,07,29,15,52,35.10
2009,07,29,15,53,35.20
2009,07,29,15,54,35.20
2009,07,29,15,55,35.20
2009,07,29,15,56,35.20
2009,07,29,15,57,35.20
2009,07,29,15,58,35.20
2009,07,29,15,59,35.20
2009,07,29,16,00,35.20
2009,07,29,16,01,35.20
2009,07,29,16,02,35.10
2009,07,29,16,03,35.10
2009,07,29,16,04,35.10
2009,07,29,16,05,35.10
2009,07,29,16,06,35.20
2009,07,29,16,07,35.30
2009,07,29,16,08,35.30
2009,07,29,16,09,35.30
2009,07,29,16,10,35.30
2009,07,29,16,11,35.20
2009,07,29,16,12,35.10
2009,07,29,16,13,34.90
2009,07,29,16,14,34.90
2009,07,29,16,15,34.80
2009,07,29,16,16,34.70
2009,07,29,16,17,34.60
2009,07,29,16,18,34.50
2009,07,29,16,19,34.40
2009,07,29,16,20,34.20
2009,07,29,16,21,34.10
2009,07,29,16,22,34.00
2009,07,29,16,23,33.90
2009,07,29,16,24,33.80
2009,07,29,16,25,33.70
2009,07,29,16,26,33.80
2009,07,29,16,27,33.80
2009,07,29,16,28,33.90
2009,07,29,16,29,33.90
2009,07,29,16,30,33.90
2009,07,29,16,31,34.00
2009,07,29,16,32,34.20
2009,07,29,16,33,34.30
2009,07,29,16,34,34.50
2009,07,29,16,35,34.60
2009,07,29,16,36,34.70
2009,07,29,16,37,34.80
2009,07,29,16,38,34.90
2009,07,29,16,39,34.90
2009,07,29,16,40,34.90
2009,07,29,16,41,34.90
2009,07,29,16,42,34.90
2009,07,29,16,43,34.90
2009,07,29,16,44,34.90
2009,07,29,16,45,34.90
2009,07,29,16,46,34.90
2009,07,29,16,47,34.80
2009,07,29,16,48,34.80
2009,07,29,16,49,34.70
2009,07,29,16,50,34.60
2009,07,29,16,51,34.60
2009,07,29,16,52,34.60
2009,07,29,16,53,34.60
2009,07,29,16,54,34.60
2009,07,29,16,55,34.60
2009,07,29,16,56,34.60
2009,07,29,16,57,34.60
2009,07,29,16,58,34.60
2009,07,29,16,59,34.60
2009,07,29,17,00,34.50
2009,07,29,17,01,34.40
2009,07,29,17,02,34.30
2009,07,29,17,03,34.30
2009,07,29,17,04,34.30
2009,07,29,17,05,34.30
2009,07,29,17,06,34.30
2009,07,29,17,07,34.20
2009,07,29,17,08,34.10
2009,07,29,17,09,34.00
2009,07,29,17,10,33.80
2009,07,29,17,11,33.70
2009,07,29,17,12,33.70
2009,07,29,17,13,33.60
2009,07,29,17,14,33.50
2009,07,29,17,15,33.40
2009,07,29,17,16,33.30
2009,07,29,17,17,33.20
2009,07,29,17,18,33.00
2009,07,29,17,19,32.90
2009,07,29,17,20,32.80
2009,07,29,17,21,32.70
2009,07,29,17,22,32.60
2009,07,29,17,23,32.40
2009,07,29,17,24,32.30